Wind_Speed
51 49 48 48 49 50 51 52 52 53 54 55 56 56 56 57 58 60 60 60 60 59 57 56 54 52 50 49 48 47 48 48 49 50 50 50 51 51 52 52 53 53
50 49 48 48 50 51 52 52 53 54 56 57 57 58 58 58 59 60 60 59 58 56 55 54 52 50 48 47 47 47 48 49 50 50 50 50 51 51 52 53 53 52
49 49 49 50 51 52 53 54 54 56 57 58 59 60 60 59 59 59 58 56 55 54 53 51 49 47 47 46 47 48 49 49 50 50 50 50 51 52 53 53 53 52
49 49 50 51 53 54 54 55 56 58 59 59 60 60 59 58 58 57 56 54 53 52 50 48 47 46 46 47 47 48 49 49 49 49 50 50 52 53 53 53 52 49
50 50 51 52 53 54 55 57 58 59 59 59 59 59 58 56 56 54 53 52 50 49 48 46 46 46 46 47 47 48 48 49 49 49 50 51 53 53 53 52 49 48
52 53 55 55 54 55 56 57 58 57 57 58 58 57 55 54 53 52 51 49 48 47 46 46 46 46 46 47 47 47 48 48 48 49 51 52 53 53 51 49 48 48
54 56 56 56 55 56 56 56 56 56 56 56 55 55 53 52 51 49 48 47 46 45 45 45 45 45 46 47 47 47 47 47 48 50 52 53 53 52 50 48 48 49
55 54 53 54 55 55 55 55 55 54 53 53 53 52 51 50 48 47 46 45 45 44 44 45 45 46 46 46 46 46 47 48 50 51 52 53 52 51 50 49 48 50
54 53 53 54 53 53 54 54 53 52 51 50 50 50 49 47 46 45 44 44 44 44 44 45 45 46 46 46 46 46 48 49 51 52 52 52 52 51 50 49 50 51
54 54 54 52 52 52 51 50 50 49 48 48 48 47 46 45 44 44 43 43 43 44 44 45 45 46 46 46 46 47 49 51 51 52 52 52 52 51 50 51 51 53
53 52 50 49 49 49 48 47 47 47 46 46 46 46 45 44 43 43 43 43 43 44 45 45 45 45 46 46 47 49 50 51 51 52 52 52 51 51 51 51 53 55
50 48 47 46 46 46 45 45 45 45 45 45 44 44 44 43 43 42 42 43 43 44 44 44 44 45 46 46 48 49 50 51 52 52 52 51 50 51 51 53 54 56
47 45 44 44 44 44 44 44 44 45 45 44 43 43 43 42 42 42 42 43 44 44 44 44 44 45 46 47 49 50 50 52 53 52 50 50 51 51 53 54 56 57
43 43 43 43 43 44 44 44 44 44 44 43 43 43 43 42 42 42 42 43 44 44 44 44 44 45 46 47 49 51 51 51 51 50 49 50 51 52 53 55 56 58
42 43 43 43 43 44 44 44 44 45 44 44 43 44 43 42 42 42 42 43 44 44 44 45 45 45 46 47 49 52 52 51 49 48 49 50 51 52 54 55 56 58
45 45 44 44 44 45 45 45 45 45 45 44 44 44 43 43 42 42 43 44 44 45 45 46 46 46 46 47 50 51 51 49 49 49 50 52 52 53 54 55 56 58
46 46 45 45 45 45 45 45 45 46 45 45 45 45 44 44 43 43 44 45 45 45 46 46 46 46 46 48 50 50 49 48 49 50 52 53 53 53 54 55 56 58
46 45 45 45 45 45 45 46 46 46 46 46 46 45 44 45 44 44 45 46 46 46 47 47 47 46 46 47 48 48 47 48 49 51 52 52 52 53 54 55 56 58
46 45 45 45 45 45 45 45 46 46 46 46 46 45 45 45 45 45 46 47 47 47 48 48 48 47 46 46 46 46 47 48 50 51 52 52 52 52 53 55 56 58
46 45 44 44 44 44 45 45 45 46 47 47 46 45 46 46 46 46 47 48 48 48 48 49 48 48 47 47 48 48 49 50 51 52 51 51 51 52 53 55 57 59
46 44 44 44 44 44 44 44 45 46 47 47 46 45 46 47 47 47 48 48 49 49 49 50 49 47 48 49 50 50 51 52 52 52 51 51 51 52 54 55 57 60
47 46 45 44 44 44 44 45 46 47 47 46 46 45 46 47 47 48 48 49 49 49 50 50 49 48 49 51 51 51 51 52 52 51 51 51 51 53 55 56 58 60
49 47 46 46 46 46 45 45 47 47 47 46 46 46 46 47 47 48 49 49 49 49 50 51 50 49 51 52 52 51 52 52 52 52 51 52 52 53 55 57 59 61
49 49 47 46 47 47 47 46 47 47 47 46 46 46 47 47 48 49 49 49 49 49 51 51 50 50 52 53 53 52 51 51 51 52 53 53 53 55 56 58 60 63
50 49 47 46 48 49 48 48 48 48 47 47 47 47 48 48 49 49 49 49 49 49 50 51 51 51 53 54 55 53 52 51 52 53 55 56 56 57 59 61 62 64
51 50 47 46 47 48 49 49 49 48 48 48 47 47 48 49 49 50 50 49 49 49 49 50 51 52 53 54 56 54 53 53 53 54 56 58 59 61 62 63 64 66
Wind_Direction
274 276 278 279 280 280 280 280 281 283 284 286 288 290 291 292 294 294 296 297 297 297 297 297 298 299 301 302 302 301 300 299 299 299 300 301 302 302 303 304 306 307
275 276 277 278 278 278 279 280 282 283 285 287 289 290 291 293 293 294 295 295 296 296 296 296 298 300 301 301 301 299 298 298 298 299 300 301 302 302 303 304 306 307
274 274 275 276 277 278 279 281 282 284 286 287 289 290 291 292 293 293 294 294 294 294 295 296 298 300 300 300 299 298 298 298 298 299 300 301 301 302 303 305 307 309
272 273 275 277 278 278 279 281 283 285 286 287 289 290 291 292 292 292 293 293 294 294 295 297 298 299 299 298 297 297 297 297 298 300 300 300 301 302 304 306 310 312
271 272 275 278 277 278 280 283 284 285 286 287 288 289 290 291 291 292 292 293 293 294 296 297 297 298 297 297 296 297 297 297 299 299 299 300 301 303 306 310 312 314
270 274 277 278 278 280 282 284 284 285 286 287 288 289 290 291 291 291 292 292 293 295 296 297 297 297 296 296 296 297 297 298 298 298 299 300 301 305 310 312 313 313
274 277 278 278 279 281 283 284 285 286 286 287 288 289 290 290 291 292 292 293 294 295 296 296 296 296 296 295 296 297 297 297 297 298 299 300 303 308 312 312 313 315
276 278 279 279 280 281 282 284 285 285 286 287 288 288 289 290 291 292 293 294 295 296 296 296 296 296 295 296 297 297 296 296 297 298 298 302 307 311 311 312 314 316
276 279 281 281 280 281 282 284 284 285 286 287 287 288 289 291 292 293 293 294 296 296 296 296 295 296 296 296 296 296 295 296 297 298 301 305 309 310 311 313 315 317
278 280 281 280 280 281 282 283 284 285 285 286 287 288 290 292 292 293 294 295 296 296 295 295 296 296 296 296 295 295 295 296 298 300 304 307 309 310 312 315 316 317
279 280 279 279 280 281 282 283 284 284 285 286 288 289 290 292 292 293 294 295 295 295 295 296 297 296 295 295 294 294 295 297 300 303 306 308 309 311 313 314 316 319
278 278 278 279 280 281 282 283 283 284 285 287 288 289 290 291 291 292 293 294 294 294 295 296 296 294 295 294 293 294 296 298 301 304 306 308 309 312 313 315 318 320
277 278 279 279 280 282 283 283 284 285 286 287 288 289 290 290 291 291 292 293 293 294 295 295 294 294 294 294 293 294 296 300 302 305 307 309 311 313 314 316 317 317
278 279 280 281 282 282 283 284 285 286 286 287 288 288 289 289 290 291 291 292 293 294 294 293 293 293 294 294 294 294 298 302 304 306 308 309 311 313 313 314 315 314
280 281 281 282 282 283 284 284 285 286 287 288 288 288 288 288 289 290 290 291 292 293 292 292 293 294 294 294 293 296 301 305 306 307 308 309 310 311 311 311 313 313
281 281 281 282 283 283 284 284 285 286 286 287 287 287 288 288 288 288 289 290 291 291 291 292 293 294 295 294 294 298 304 306 306 307 308 308 308 308 309 310 312 313
280 281 282 283 283 283 284 284 285 285 285 286 286 287 288 287 287 287 288 288 289 290 291 292 293 295 295 294 297 302 305 305 305 305 305 305 306 307 308 310 311 313
281 282 283 283 283 283 283 283 284 284 284 284 285 286 287 286 286 286 286 287 288 289 290 291 293 295 295 295 298 301 302 301 300 300 301 303 305 307 308 310 311 312
283 283 283 283 283 283 283 283 283 283 283 283 284 285 286 285 285 285 285 286 287 288 290 291 293 294 294 295 297 298 297 297 298 299 301 304 306 307 308 310 311 312
284 283 283 283 283 283 283 283 282 282 282 282 283 284 284 284 284 284 284 285 286 288 289 291 292 294 294 295 296 296 296 297 299 301 303 305 306 307 308 309 310 312
284 284 283 283 284 284 284 283 283 282 281 282 282 283 283 283 283 283 283 284 286 287 289 290 292 294 294 294 295 296 297 299 300 303 304 305 306 307 308 309 310 313
285 284 284 284 284 285 285 285 284 282 282 282 282 282 281 282 282 282 282 283 284 286 288 289 291 293 293 292 294 296 298 300 302 304 304 305 306 307 308 309 311 313
284 283 283 284 285 285 286 286 285 284 283 283 282 281 281 281 281 281 281 282 283 285 287 289 291 293 292 292 295 297 299 301 303 304 304 305 307 307 308 310 312 314
283 283 284 285 286 286 286 286 286 285 284 283 282 281 280 280 279 280 280 281 282 284 287 289 291 292 292 293 294 296 299 302 303 304 304 306 307 308 310 312 314 315
283 284 286 286 286 286 287 287 286 285 284 283 282 281 280 279 279 279 279 281 282 284 287 289 291 291 292 293 294 297 300 302 303 305 306 308 310 312 313 313 314 314
283 285 288 289 288 286 286 286 286 286 285 283 281 281 280 280 279 280 280 281 282 284 286 288 289 290 292 294 296 299 302 303 304 307 309 311 312 313 312 312 312 313
Height
10742 10744 10744 10744 10743 10741 10740 10739 10737 10735 10733 10732 10731 10731 10731 10730 10726 10722 10721 10719 10717 10715 10713 10710 10708 10705 10703 10701 10699 10696 10694 10692 10690 10687 10685 10683 10681 10678 10675 10672 10670 10667
10737 10738 10739 10738 10737 10736 10734 10733 10732 10730 10728 10727 10727 10725 10725 10724 10721 10717 10716 10714 10712 10710 10707 10705 10703 10700 10698 10696 10694 10692 10689 10687 10685 10683 10681 10678 10676 10673 10670 10667 10664 10661
10732 10733 10733 10733 10732 10730 10728 10728 10727 10725 10723 10722 10721 10719 10719 10718 10715 10712 10710 10709 10707 10704 10702 10700 10698 10695 10693 10691 10689 10687 10685 10683 10680 10678 10676 10673 10670 10667 10665 10662 10659 10656
10727 10727 10728 10727 10726 10724 10723 10723 10721 10719 10718 10717 10715 10713 10713 10712 10709 10707 10705 10704 10702 10699 10697 10695 10693 10691 10689 10687 10685 10683 10681 10678 10676 10674 10671 10668 10665 10662 10659 10657 10654 10651
10721 10721 10722 10722 10721 10719 10718 10717 10715 10714 10713 10712 10709 10708 10707 10706 10704 10702 10700 10698 10696 10694 10692 10690 10688 10686 10684 10682 10680 10678 10676 10674 10671 10669 10665 10662 10659 10657 10654 10652 10650 10646
10715 10716 10716 10716 10715 10714 10712 10711 10709 10708 10707 10705 10703 10702 10701 10700 10698 10697 10695 10693 10691 10689 10687 10685 10683 10681 10679 10677 10676 10674 10671 10669 10666 10663 10660 10657 10654 10652 10650 10647 10644 10640
10710 10710 10710 10710 10710 10708 10706 10704 10703 10702 10701 10699 10697 10696 10695 10694 10693 10691 10689 10687 10686 10684 10682 10680 10678 10676 10674 10672 10671 10669 10666 10664 10661 10658 10654 10651 10649 10647 10645 10642 10638 10634
10704 10705 10704 10704 10704 10702 10700 10698 10697 10697 10696 10694 10691 10690 10689 10688 10687 10686 10684 10682 10680 10678 10677 10675 10673 10671 10669 10667 10666 10664 10661 10658 10656 10652 10649 10646 10644 10642 10639 10636 10632 10629
10698 10698 10698 10697 10697 10696 10694 10692 10691 10691 10690 10688 10686 10684 10684 10683 10682 10680 10679 10677 10675 10673 10671 10669 10668 10666 10664 10663 10661 10659 10656 10653 10650 10647 10644 10642 10639 10636 10633 10630 10626 10623
10692 10692 10692 10691 10690 10689 10688 10687 10685 10685 10684 10682 10681 10679 10679 10678 10677 10675 10673 10672 10670 10668 10666 10664 10663 10661 10659 10658 10656 10653 10651 10648 10645 10642 10640 10637 10634 10631 10627 10624 10621 10617
10686 10686 10685 10685 10684 10682 10682 10681 10679 10678 10678 10677 10676 10674 10674 10673 10672 10670 10668 10666 10664 10662 10660 10659 10658 10656 10654 10653 10650 10648 10645 10643 10640 10637 10635 10632 10628 10625 10622 10618 10615 10611
10679 10679 10679 10679 10678 10676 10676 10675 10674 10673 10672 10672 10671 10670 10669 10668 10667 10665 10663 10661 10659 10657 10656 10655 10653 10651 10649 10647 10644 10642 10640 10637 10635 10632 10629 10626 10623 10619 10616 10612 10609 10605
10673 10673 10673 10673 10672 10671 10670 10669 10669 10667 10667 10667 10666 10665 10664 10663 10661 10660 10658 10655 10653 10652 10651 10650 10648 10646 10644 10642 10638 10636 10635 10632 10629 10627 10623 10620 10617 10614 10610 10606 10603 10600
10667 10667 10667 10667 10666 10665 10665 10664 10663 10662 10662 10662 10661 10660 10659 10658 10656 10654 10652 10650 10648 10648 10646 10645 10643 10642 10639 10636 10633 10630 10629 10627 10624 10621 10618 10614 10611 10608 10605 10602 10599 10596
10661 10660 10661 10661 10661 10661 10660 10659 10658 10657 10656 10656 10655 10654 10653 10652 10651 10649 10647 10645 10644 10643 10641 10640 10639 10637 10634 10631 10627 10624 10622 10621 10618 10615 10612 10609 10606 10603 10600 10598 10595 10592
10655 10655 10655 10656 10656 10655 10654 10654 10653 10651 10651 10650 10649 10648 10648 10647 10646 10644 10643 10641 10640 10638 10636 10635 10634 10632 10629 10625 10622 10619 10617 10614 10612 10609 10607 10604 10601 10598 10595 10593 10590 10586
10649 10650 10650 10650 10650 10649 10649 10648 10647 10645 10645 10644 10643 10643 10643 10642 10640 10640 10638 10636 10635 10633 10631 10630 10629 10627 10624 10619 10616 10615 10612 10609 10607 10604 10602 10599 10596 10594 10590 10588 10585 10581
10644 10645 10645 10645 10644 10644 10643 10642 10641 10640 10639 10638 10638 10638 10638 10636 10635 10634 10633 10631 10630 10629 10627 10625 10624 10622 10619 10615 10612 10610 10608 10605 10603 10600 10597 10594 10592 10589 10586 10582 10579 10576
10639 10639 10640 10639 10638 10638 10637 10636 10635 10634 10633 10633 10633 10634 10633 10631 10630 10629 10628 10626 10625 10624 10622 10620 10618 10617 10614 10611 10609 10606 10603 10600 10598 10595 10593 10590 10587 10584 10581 10577 10574 10570
10634 10634 10634 10634 10634 10633 10632 10631 10630 10628 10627 10627 10628 10628 10627 10625 10625 10624 10622 10621 10619 10618 10617 10614 10613 10612 10608 10605 10604 10601 10598 10595 10593 10591 10588 10586 10583 10579 10575 10572 10568 10564
10629 10629 10629 10629 10629 10627 10626 10626 10624 10622 10622 10622 10623 10623 10621 10619 10619 10618 10617 10615 10614 10613 10611 10608 10607 10607 10603 10599 10598 10596 10593 10591 10588 10586 10584 10580 10577 10574 10570 10566 10562 10558
10623 10623 10624 10624 10623 10622 10621 10620 10619 10617 10616 10617 10617 10617 10615 10614 10613 10612 10611 10610 10609 10607 10605 10602 10602 10602 10598 10594 10592 10590 10588 10585 10583 10581 10578 10575 10572 10568 10564 10561 10557 10553
10617 10617 10618 10618 10617 10617 10616 10615 10613 10612 10611 10611 10611 10611 10609 10608 10607 10606 10605 10605 10603 10602 10599 10596 10595 10595 10591 10587 10586 10585 10583 10580 10577 10575 10572 10570 10567 10563 10559 10556 10552 10548
10611 10611 10613 10613 10613 10612 10611 10610 10608 10607 10606 10606 10605 10604 10603 10602 10601 10600 10599 10599 10598 10596 10593 10590 10589 10588 10584 10581 10580 10580 10578 10576 10572 10568 10566 10564 10561 10557 10553 10550 10546 10542
10606 10606 10609 10610 10609 10607 10605 10604 10603 10602 10601 10600 10599 10598 10597 10596 10595 10594 10594 10593 10593 10591 10588 10584 10582 10581 10577 10574 10574 10573 10572 10570 10567 10563 10559 10555 10553 10549 10546 10543 10540 10536
10601 10602 10605 10606 10604 10601 10600 10598 10597 10596 10595 10594 10593 10592 10590 10589 10589 10588 10588 10587 10587 10585 10583 10579 10576 10574 10571 10568 10567 10566 10565 10563 10560 10557 10552 10548 10544 10541 10539 10537 10535 10531